Location: Elk Horn Observatory
(36.6768°N, 80.8309°W)
Time: 05:45:07
(UTC-05:00)

Envisat - Pass Details

Date: 31 January 2019
Orbit: 764 x 766 km, 98.2° (Epoch: 22 February)

Event Time Altitude Azimuth Distance (km) Brightness Sun altitude
Rises 06:40:33 0° 34° (NE) 3,234 6.5 -9.5°
Reaches altitude 10° 06:43:54 10° 57° (ENE) 2,302 6.1 -8.9°
Maximum altitude 06:46:44 15° 92° (E) 1,973 6.5 -8.3°
Drops below altitude 10° 06:49:34 10° 126° (SE) 2,293 6.8 -7.8°
Sets 06:52:53 0° 149° (SSE) 3,213 7.0 -7.2°
